User: anonymous   Login
Location: Bangkok
(13.7500°N, 100.5170°E)
Time: 16:38:52
(UTC+07:00)
Language:

Cosmos 1898 Rocket - Orbit

View from above orbital plane
View from above orbital plane
View from above satellite
View from above satellite

Ground track
Ground track

The orbit data is extracted from the following two-line orbital elements,

1 18586U 87098B   18054.51047031 -.00000017  00000-0  32256-5 0  9991
2 18586  74.0071 192.5369 0021190 192.8311 167.2305 14.36808145583451
Epoch (UTC): 23 February 2018 12:15:04
Eccentricity: 0.0021190
inclination: 74.0071°
perigee height: 754 km
apogee height: 784 km
right ascension of ascending node: 192.5369°
argument of perigee: 192.8311°
revolutions per day: 14.36808145
mean anomaly at epoch: 167.2305°
orbit number at epoch: 58345

The dashed part of the orbit path shows where the satellite is in the earth's shadow,  

DLR